#timestamp,LO_Frequency,Hit,Temp,Hum 
1479484815.5,286046978.2,N,0.0,0.0
1479484835.3,286046977.8,N,0.0,0.0
1479484855.2,286046977.9,N,0.0,0.0
1479484875.9,286046977.7,N,0.0,0.0
1479484895.7,286046977.8,N,0.0,0.0
1479484915.6,286046979.8,N,0.0,0.0
1479484935.4,286046977.8,N,0.0,0.0
1479484955.2,286046977.4,N,0.0,0.0
1479484975.1,286046977.5,N,0.0,0.0
1479484976.0,286046977.5,N,0.0,0.0
1479484995.8,286046980.3,N,0.0,0.0
1479485015.7,286046980.4,N,0.0,0.0
1479485035.5,286046980.4,N,0.0,0.0
1479485055.3,286046980.0,N,0.0,0.0
1479485075.2,286046979.7,N,0.0,0.0
1479485095.9,286046979.8,N,0.0,0.0
1479485115.7,286046980.1,N,0.0,0.0
1479485135.6,286046980.0,N,0.0,0.0
1479485155.4,286046980.1,N,0.0,0.0
1479485175.2,286046980.2,N,0.0,0.0
1479485195.1,286046979.8,N,0.0,0.0
1479485196.0,286046979.8,N,0.0,0.0
1479485215.8,286046979.8,N,0.0,0.0
1479485235.7,286046979.0,N,0.0,0.0
1479485255.5,286046979.0,N,0.0,0.0
1479485275.3,286046981.9,N,0.0,0.0
1479485295.2,286046982.0,N,0.0,0.0
1479485315.0,286046981.4,N,0.0,0.0
1479485315.9,286046981.4,N,0.0,0.0
1479485335.8,286046981.6,N,0.0,0.0
1479485355.6,286046981.1,N,0.0,0.0
1479485375.4,286046983.3,N,0.0,0.0
1479485395.3,286046982.6,N,0.0,0.0
1479485415.1,286046983.6,N,0.0,0.0
1479485435.8,286046980.9,N,0.0,0.0
1479485455.7,286046981.0,N,0.0,0.0
1479485475.5,286046983.5,N,0.0,0.0
1479485495.4,286046983.1,N,0.0,0.0
1479485515.2,286046982.3,N,0.0,0.0
1479485535.0,286046983.3,N,0.0,0.0
1479485535.9,286046983.3,N,0.0,0.0
1479485555.8,286046982.5,N,0.0,0.0
1479485575.6,286046982.5,N,0.0,0.0
1479485595.4,286046982.2,N,0.0,0.0
1479485615.3,286046984.8,N,0.0,0.0
1479485635.1,286046984.3,N,0.0,0.0
1479485655.9,286046984.5,N,0.0,0.0
1479485675.7,286046984.1,N,0.0,0.0
1479485695.5,286046984.4,N,0.0,0.0
1479485715.4,286046984.1,N,0.0,0.0
1479485735.2,286046986.7,N,0.0,0.0
1479485755.1,286046986.4,N,0.0,0.0
1479485756.0,286046986.4,N,0.0,0.0
1479485775.8,286046986.7,N,0.0,0.0
1479485795.6,286046986.5,N,0.0,0.0
1479485815.5,286046984.0,N,0.0,0.0
1479485835.3,286046986.3,N,0.0,0.0
1479485855.1,286046986.0,N,0.0,0.0
1479485875.9,286046985.6,N,0.0,0.0
1479485895.7,286046986.8,N,0.0,0.0
1479485915.6,286046985.8,N,0.0,0.0
1479485935.4,286046987.1,N,0.0,0.0
1479485955.2,286046989.8,N,0.0,0.0
1479485975.1,286046989.5,N,0.0,0.0
1479485976.0,286046989.5,N,0.0,0.0
1479485995.8,286046987.4,N,0.0,0.0
1479486015.6,286046987.4,N,0.0,0.0
1479486035.5,286046987.5,N,0.0,0.0
1479486055.3,286046985.3,N,0.0,0.0
1479486075.2,286046988.1,N,0.0,0.0
1479486095.9,286046987.2,N,0.0,0.0
1479486115.7,286046989.2,N,0.0,0.0
1479486135.6,286046989.6,N,0.0,0.0
1479486155.4,286046989.9,N,0.0,0.0
1479486175.2,286046989.6,N,0.0,0.0
1479486195.1,286046989.2,N,0.0,0.0
1479486196.0,286046989.2,N,0.0,0.0
1479486215.8,286046989.8,N,0.0,0.0
1479486235.7,286046988.5,N,0.0,0.0
1479486255.5,286046990.8,N,0.0,0.0
1479486275.3,286046991.4,N,0.0,0.0
1479486295.2,286046988.6,N,0.0,0.0
1479486315.0,286046988.7,N,0.0,0.0
1479486315.9,286046988.7,N,0.0,0.0
1479486335.8,286046988.5,N,0.0,0.0
1479486355.6,286046990.1,N,0.0,0.0
1479486375.4,286046990.8,N,0.0,0.0
1479486395.3,286046990.7,N,0.0,0.0
1479486415.1,286046990.4,N,0.0,0.0
1479486435.8,286046993.0,N,0.0,0.0
1479486455.7,286046992.4,N,0.0,0.0
1479486475.5,286046991.9,N,0.0,0.0
1479486495.4,286046994.4,N,0.0,0.0
1479486515.2,286046994.0,N,0.0,0.0
1479486535.0,286046994.7,N,0.0,0.0
1479486535.9,286046994.7,N,0.0,0.0
1479486555.8,286046994.7,N,0.0,0.0
1479486575.6,286046994.8,N,0.0,0.0
1479486595.4,286046994.2,N,0.0,0.0
1479486615.3,286046994.3,N,0.0,0.0
1479486635.1,286046993.6,N,0.0,0.0
1479486655.9,286046993.3,N,0.0,0.0
1479486675.7,286046995.8,N,0.0,0.0
1479486695.5,286046993.5,N,0.0,0.0
1479486715.4,286046994.6,N,0.0,0.0
1479486735.2,286046994.1,N,0.0,0.0
1479486755.0,286046996.3,N,0.0,0.0
1479486756.0,286046996.3,N,0.0,0.0
1479486775.8,286046993.7,N,0.0,0.0
1479486795.6,286046996.2,N,0.0,0.0
1479486815.5,286046996.0,N,0.0,0.0
1479486835.3,286046995.5,N,0.0,0.0
1479486855.1,286046995.2,N,0.0,0.0
1479486875.9,286046997.9,N,0.0,0.0
1479486895.7,286046995.1,N,0.0,0.0
1479486915.6,286046995.3,N,0.0,0.0
1479486935.4,286046995.4,N,0.0,0.0
1479486955.2,286046997.4,N,0.0,0.0
1479486975.1,286046996.7,N,0.0,0.0
1479486976.0,286046996.7,N,0.0,0.0
1479486995.8,286046996.6,N,0.0,0.0
1479487015.6,286046996.6,N,0.0,0.0
1479487035.5,286046996.8,N,0.0,0.0
1479487055.3,286046997.2,N,0.0,0.0
1479487075.2,286046997.2,N,0.0,0.0
1479487095.9,286046997.3,N,0.0,0.0
1479487115.7,286046997.0,N,0.0,0.0
1479487135.6,286046999.2,N,0.0,0.0
1479487155.4,286046998.3,N,0.0,0.0
1479487175.2,286046998.3,N,0.0,0.0
1479487195.1,286047001.1,N,0.0,0.0
1479487196.0,286047001.1,N,0.0,0.0
1479487215.8,286047001.1,N,0.0,0.0
1479487235.7,286047000.6,N,0.0,0.0
1479487255.5,286047001.1,N,0.0,0.0
1479487275.3,286047001.0,N,0.0,0.0
1479487295.2,286047001.1,N,0.0,0.0
1479487315.0,286047002.8,N,0.0,0.0
1479487315.9,286047002.8,N,0.0,0.0
1479487335.8,286047000.2,N,0.0,0.0
1479487355.6,286047000.5,N,0.0,0.0
1479487375.4,286047002.4,N,0.0,0.0
1479487395.3,286047001.9,N,0.0,0.0
1479487415.1,286047002.2,N,0.0,0.0
1479487435.8,286046999.8,N,0.0,0.0
1479487455.7,286047002.4,N,0.0,0.0
1479487475.5,286047002.5,N,0.0,0.0
1479487495.3,286047002.8,N,0.0,0.0
1479487515.2,286047002.1,N,0.0,0.0
1479487535.0,286047001.4,N,0.0,0.0
1479487535.9,286047001.4,N,0.0,0.0
1479487555.8,286047003.8,N,0.0,0.0
1479487575.6,286047004.2,N,0.0,0.0
1479487595.4,286047003.2,N,0.0,0.0
1479487615.3,286047006.0,N,0.0,0.0
1479487635.1,286047005.7,N,0.0,0.0
1479487655.9,286047004.2,N,0.0,0.0
1479487675.7,286047001.6,N,0.0,0.0
1479487695.5,286047001.4,N,0.0,0.0
1479487715.4,286047003.9,N,0.0,0.0
1479487735.2,286047004.3,N,0.0,0.0
1479487755.0,286047003.7,N,0.0,0.0
1479487755.9,286047003.7,N,0.0,0.0
1479487775.8,286047003.8,N,0.0,0.0
1479487795.6,286047005.9,N,0.0,0.0
1479487815.5,286047003.1,N,0.0,0.0
1479487835.3,286047003.5,N,0.0,0.0
1479487855.1,286047003.3,N,0.0,0.0
1479487875.9,286047005.2,N,0.0,0.0
1479487895.7,286047005.7,N,0.0,0.0
1479487915.5,286047005.6,N,0.0,0.0
1479487935.4,286047005.8,N,0.0,0.0
1479487955.2,286047005.4,N,0.0,0.0
1479487975.1,286047002.9,N,0.0,0.0
1479487976.0,286047002.9,N,0.0,0.0
1479487995.8,286047001.8,N,0.0,0.0
1479488015.6,286047001.4,N,0.0,0.0
1479488035.5,286047001.7,N,0.0,0.0
1479488055.3,286047002.3,N,0.0,0.0
1479488075.1,286047000.7,N,0.0,0.0
1479488095.9,286047000.7,N,0.0,0.0
1479488115.7,286046998.1,N,0.0,0.0
1479488135.6,286046996.9,N,0.0,0.0
1479488155.4,286046994.9,N,0.0,0.0
1479488175.2,286046995.7,N,0.0,0.0
1479488195.1,286046996.4,N,0.0,0.0
1479488196.0,286046996.4,N,0.0,0.0
1479488215.8,286046994.4,N,0.0,0.0
1479488235.6,286046991.9,N,0.0,0.0
1479488255.5,286046992.7,N,0.0,0.0
1479488275.3,286046993.1,N,0.0,0.0
1479488295.2,286046991.5,N,0.0,0.0
1479488315.9,286046989.0,N,0.0,0.0
1479488335.7,286046989.2,N,0.0,0.0
1479488355.6,286046989.5,N,0.0,0.0
1479488375.4,286046985.3,N,0.0,0.0
1479488395.2,286046984.2,N,0.0,0.0
